CAPE
466 623 536 480 635 615 796 839 1122 1111 1174 1538 1660 1324 1522 1752 1626 1796 2208 2384 2579 2683 2847 3022 2910 2970 2929 3022 3106 3186 3275 3271 3257 3295 3463 3689 3649 3509 3211 2716 2686 2700 2649 2713 2853 3074 2798 2893 2994 2919 2826 2801 2923 3017 3094 3223 3109 2936 2793 2210 2263 2403 2210 2099 2076 2176 2077 1550 1498 1848 1838 1935 1790 1746 1605 1638 1602 1552 1703 1791 1805 1461 1628 1702 1691
603 684 609 460 702 798 725 838 1208 1010 1301 1526 1498 1435 1770 1736 1231 1589 1686 2082 2410 2602 2812 2936 2828 2942 3143 3202 2967 3016 3026 3155 3194 3292 3482 3593 3504 3349 2973 2935 2887 2821 2839 2940 3027 3010 2797 2874 2846 2883 2757 2832 2624 2948 3023 3090 3014 2958 2995 2859 2681 2620 2456 2078 1962 1881 1755 2051 1477 1833 1709 1508 1535 1749 1518 1476 1581 1761 1589 1690 1770 1488 1574 1628 1780
493 848 732 548 734 853 816 1048 1265 967 1406 1310 1617 1643 1805 1862 1442 1598 1869 2048 2712 2042 2576 3025 3126 3056 3143 3277 3189 3132 3197 3190 3094 3126 3347 3393 3365 3220 3166 3106 3017 2939 2968 3018 2988 3020 3074 2946 2907 2837 2850 2842 2492 2605 2253 3016 2953 2867 2877 3026 2993 2758 2635 2479 2182 1828 2025 2007 2123 2155 2188 1636 1810 1712 1311 1131 1216 1918 1842 1695 1795 1708 1668 1994 1875
516 912 727 616 729 974 894 1337 1346 1407 1225 1482 1250 1351 1653 2100 2129 2022 2110 2236 2691 2697 2768 2815 2923 3244 3194 3070 3094 3153 3145 3165 3173 3271 3408 3494 3306 3262 3126 2996 2945 2934 2936 2954 2865 2770 2737 2754 2727 2700 2792 2802 2777 2564 2488 2602 2710 2476 2788 2981 2878 2811 2627 2377 2390 2058 2174 2078 1934 1725 1658 1580 1660 1617 1588 1639 1733 1710 2040 2101 1809 1723 1710 1908 1912
372 675 834 567 698 1057 1390 1688 1708 1478 1538 1038 1327 1316 1905 2126 1891 1945 2393 2248 2541 2640 2775 2634 2959 3120 3059 3071 3098 3014 3112 3099 3072 3285 3413 3410 3244 3323 3438 3350 3313 2999 2956 2777 2854 2694 2594 2856 2840 2741 2604 2844 2724 2772 2559 2410 2888 2971 3067 2699 2881 2900 2619 2419 2401 1813 2277 2186 1986 1874 1179 1248 1656 1645 1680 1408 1591 1487 2091 2277 2229 2098 1831 1717 1952
556 674 530 560 668 1306 1489 1610 1668 1764 1307 1306 1590 1869 1562 2061 1959 1697 2402 2364 2498 2534 2678 2716 2934 2926 2939 2915 2956 2934 3026 2980 3104 3404 3512 3476 3475 3433 3453 3522 3608 3487 3238 3078 3037 2961 2954 2916 2890 2976 2846 2856 2649 2703 3104 3130 3046 2941 2905 2824 2798 2872 2828 2655 2509 2310 2369 2140 1681 1752 1477 1305 1320 1580 1725 1669 1446 1730 1724 2066 2069 1980 1810 1812 1574
739 648 682 682 926 1436 1921 1839 1882 1918 1858 1875 1934 2018 1687 1568 2117 2351 2314 2293 2296 2408 2576 2702 2691 2642 2760 2774 2817 2790 2772 2869 3083 3403 3722 3670 3548 3601 3580 3610 3560 3473 3507 3571 3473 3311 3279 3192 3102 2842 3025 2880 2764 2855 3032 3205 3047 2967 2977 2748 3032 3015 2844 2816 2600 2667 2277 1925 1918 1305 1348 1130 1626 1498 1826 1864 1755 1598 1907 1870 1763 1876 1926 1734 1544
568 661 831 835 954 1490 1754 1636 1804 1926 1739 1898 2120 2058 2109 2251 2431 2528 2592 2371 2240 2340 2352 2509 2533 2620 2669 2691 2582 2604 2745 2843 3001 3216 3383 3452 3564 3672 3455 3389 3198 3198 3240 3332 3220 3227 3105 3065 2854 2872 2912 2768 2779 2989 2947 3063 2804 2837 3001 2854 3013 3014 2944 2868 2624 2450 2088 1763 1742 1778 1573 1995 1792 1645 1833 1914 1894 1756 1896 1744 1428 1410 1972 1835 1912
539 673 758 1070 1262 1659 1694 1694 1777 1749 1755 2015 2083 1974 2232 2561 2560 2721 2693 2563 2357 2200 2319 2392 2428 2500 2612 2602 2510 2594 2738 2856 3058 3325 3503 3352 3516 3430 3336 2816 2868 3065 3001 2971 2969 2965 2840 2834 2833 2636 2536 2604 2684 2668 2894 2858 2960 2879 2888 2841 2810 2812 2983 2970 2624 2438 1908 1537 1247 1620 1815 1654 1805 1726 1925 1935 1965 1921 1917 1887 1756 1392 1704 1685 1794
512 673 732 1101 1328 2009 1932 1929 1862 2004 2028 1960 2006 2030 2382 2630 2584 2627 2559 2441 2219 2295 2147 2174 2374 2510 2436 2435 2387 2365 2548 2811 3112 3452 3668 3678 3596 3326 3180 3124 2940 2994 2910 2838 2826 2874 2791 2532 2488 2440 2382 2488 2506 2452 2609 2874 2768 2823 2588 2891 2657 2779 2945 3034 2341 2289 1724 1294 1139 1419 1796 2164 1896 1423 1748 1961 1946 1791 1908 1929 1656 1262 1236 1824 1608
537 593 857 1027 1436 1963 1886 2015 1974 2025 2177 2230 2397 2375 2259 2396 2374 2314 2215 2314 2149 2240 2122 2222 2413 2587 2558 2525 2482 2357 2496 2829 3143 3473 3479 3473 3246 3105 2987 2896 2919 2991 3022 3063 2998 2839 2628 2597 2473 2457 2297 2396 2414 2337 2372 2595 2752 2792 2639 2863 3076 2772 2828 2613 2269 1956 1684 1512 1503 2083 1953 2170 1804 1833 2024 1839 1798 1719 1515 1431 1829 1428 1350 1653 1931
747 886 1132 1529 2173 2168 2046 2257 2435 2229 2151 2309 2435 2590 2555 2347 2256 2272 2305 2227 2222 2176 2125 2143 2401 2578 2517 2447 2529 2488 2364 2656 3083 3329 3390 3203 3125 2906 2832 2831 2912 3007 3019 2957 2856 2728 2645 2576 2373 2359 2453 2498 2526 2294 2178 2332 2620 2649 2562 2874 2795 2866 2689 2638 2503 2158 1985 1509 1552 2256 1462 1122 1610 1840 1877 1836 1554 1456 1538 1652 1552 1667 1537 1680 1949
891 1056 1520 1860 2053 2140 2224 2565 2744 2603 2478 2502 2644 2580 2455 2479 2417 2268 2275 2248 2262 2422 2168 2231 2510 2647 2587 2525 2502 2345 2346 2455 2968 3145 3134 2980 2973 2858 2771 2842 3003 2991 2926 2754 2774 2697 2623 2473 2396 2084 2416 2494 2429 2282 2426 1976 2563 2620 2790 2859 2781 2782 2844 2757 2132 1912 1896 1864 1611 2368 2210 2403 1834 2117 1978 1766 1679 1617 1551 1639 1737 1692 1413 1337 1594
1053 1278 1333 1671 2094 2527 2367 2820 2802 2786 2686 2673 2589 2459 2420 2400 2346 2297 2220 2253 2335 2431 2493 2552 2568 2538 2580 2602 2472 2359 2399 2551 2751 3120 3178 2988 2821 2769 2741 2739 2681 2766 2657 2728 2602 2638 2618 2397 2299 2224 2356 2616 2352 2214 2245 2382 2592 2629 2826 2840 2822 2747 2662 2528 1960 1778 1910 1882 2467 2547 2314 2884 2049 2216 1903 1489 1841 1785 1673 1600 1595 1602 1499 1450 1254
1122 1021 1046 1797 2279 2319 2663 2768 2807 2784 2816 2687 2588 2518 2145 2305 2472 2260 2230 2322 2245 2516 2549 2573 2558 2530 2566 2553 2494 2443 2565 2580 2704 3155 3261 3173 2957 2844 2766 2693 2723 2718 2561 2578 2568 2705 2596 2362 2233 2325 2497 2519 2295 2236 2320 2618 2703 2878 2785 2954 2760 2664 2751 1888 1634 1624 1668 2051 2141 2209 2417 2724 2305 2185 2012 1846 1672 1868 1425 1668 1575 1620 1468 1343 1251
1069 1060 1480 1802 2095 2528 2692 2896 2835 2880 2957 2860 2910 2618 2527 2304 2589 2384 2345 2272 2250 2440 2573 2556 2583 2602 2584 2538 2648 2630 2705 2659 2798 2980 3069 3217 3286 3030 2922 2823 2762 2783 2653 2539 2613 2605 2619 2512 2396 2430 2452 2561 2429 2234 2380 2515 2582 2811 2797 2818 2815 3029 2864 2197 2124 1791 1981 1954 2494 2538 2696 2517 2731 2187 2084 1936 1396 1294 1270 1506 1653 1530 1490 1412 1306
1009 1377 1317 1459 1894 1847 2195 2535 2752 3052 3060 3026 2984 2757 2680 2695 2656 2538 2436 2341 2394 2372 2371 2467 2534 2680 2695 2842 2871 2757 2872 2888 2765 2854 2782 2642 2980 3068 2859 3040 2916 2784 2798 2634 2713 2588 2605 2610 2576 2467 2610 2733 2604 2681 2520 2777 2934 3099 2852 2884 2923 3157 3155 2490 1788 2224 1650 2258 2335 2132 2272 2688 2966 1889 2199 2212 1789 1786 1344 1697 1634 1502 1492 1469 1438
931 850 1064 1440 1266 1462 1621 2150 2873 2924 2896 3070 3150 3240 2920 2800 2759 2635 2457 2420 2423 2372 2412 2444 2582 2644 2659 2849 2814 2751 2791 2803 2951 2850 2560 2703 1838 2226 2784 2779 2958 2882 2999 2947 2915 2826 2600 2760 2493 2520 2642 2861 2880 2836 3079 3038 3245 3034 3144 3179 3203 3177 3167 3082 2434 1916 1961 2580 2584 2504 2698 2460 3027 1947 1762 2202 2194 1592 1766 1632 1642 1552 1547 1624 1473
827 911 1180 986 1252 1229 1376 2551 2809 2599 2801 2727 2904 3153 3064 2977 2879 2847 2589 2420 2462 2386 2459 2567 2636 2754 2796 2743 2720 2694 2790 2939 3230 2715 2575 2259 2460 2370 2620 2649 2666 2577 2633 2931 2855 2555 2863 2759 2256 2420 2784 2757 2903 2790 3151 3041 2894 3381 3159 3470 3508 3180 2900 2184 2076 2381 2359 2889 2949 2462 2848 3016 2739 2267 1944 2117 2271 2089 1958 1818 1702 1575 1446 1719 1692
1043 938 868 990 1068 1130 2052 2204 2488 2619 2607 2422 2759 2806 3042 2918 2961 2856 2621 2475 2500 2487 2542 2755 2853 2810 2732 2638 2683 2785 2874 3059 2977 2662 2321 2140 2327 2063 2813 2766 2745 2690 2569 2400 2645 2564 3045 2896 2363 2320 2649 2789 3130 2883 2746 2609 3192 3228 3216 3100 3435 3258 2719 1958 1620 2128 1583 2289 2632 2542 2872 2864 2827 2326 1977 1703 2149 2228 2140 1908 1794 1609 1499 1317 1696
1015 1058 1075 1314 1207 1647 2152 2247 2453 2496 2281 2314 2462 2775 3022 2953 2920 2872 2703 2656 2656 2660 2784 2872 2845 2699 2632 2646 2804 2766 3013 2775 2938 2636 2048 2158 3141 2689 3260 2899 3125 2957 2591 2649 2753 2566 2330 2562 2507 2659 2366 2629 2922 3093 3186 2811 2847 3302 3297 2905 2624 2665 2244 1657 1701 2110 2225 2515 3666 3005 2595 2964 3106 2701 2041 1876 2040 2224 2162 2012 1895 1666 1564 1482 1674
1062 1123 1320 1206 1653 1960 2097 2402 2388 2357 2289 2488 2588 2878 3202 3077 2918 2917 2796 2862 2850 2886 3106 3071 3058 2951 2820 2986 3098 2804 3099 3816 3520 2755 2616 2349 3201 2646 3189 3181 3203 2828 2826 2850 2857 2657 2642 2490 1886 2073 2812 2859 2478 2961 3712 3237 2935 3497 3584 3161 2814 2523 1977 1276 1838 1646 1795 2589 2865 3158 3008 3161 3277 3075 2443 1946 1645 1995 2211 2060 1898 1853 1693 1723 1716
1246 1278 1261 1328 2032 1732 2058 2097 2310 2383 2285 2651 2510 2710 3078 3052 2808 3057 2898 3008 3102 3184 3181 2968 2997 2932 3137 2879 3399 2915 3414 3567 3734 3260 2520 2961 2621 2946 2613 2876 3032 3255 3224 2915 2990 2612 2954 2442 1892 2086 2330 2660 2899 3632 3641 3447 3364 3238 3453 3007 2933 1313 1473 1312 1369 1657 2033 2152 3031 3317 3525 3354 3210 3049 2563 2066 1942 1840 2073 2082 1964 1942 1847 1857 1896
1371 1476 1417 1778 1682 1719 2198 2231 2361 2521 2643 2368 2155 2617 2811 3059 2744 2684 2741 2967 3138 3189 3046 2906 2861 3032 2807 3002 2868 3252 3335 3231 3630 3488 3007 3013 2078 2372 3081 3491 3482 3451 3209 2631 2635 3135 2799 2567 2309 2128 1989 2374 3149 2375 2098 1902 1752 2335 2021 2116 1962 1866 2478 1640 1683 2087 2122 2638 2918 2928 3325 3480 3304 2964 2736 2409 2160 1878 1826 2189 2190 2040 1928 1886 1848
1329 1457 1690 2044 1769 2033 1897 2538 2609 2697 2546 2373 1892 2184 2555 2642 2539 2492 2621 2728 2823 2912 2554 2570 2777 3307 2995 3250 2632 3039 2658 2723 3262 3531 3156 2149 2334 3401 2848 3488 2988 2811 3337 3124 3008 2639 3176 2665 2577 2610 2962 2102 1929 1831 2224 2166 2354 2251 2068 1935 1732 1208 829 845 1920 2625 2730 3062 2267 2699 2508 3025 3634 3005 2891 2610 2323 1910 1868 1983 2142 2165 2032 1983 1889
1215 1368 1834 1697 1622 1660 1639 2102 2051 2557 2567 2394 2223 2399 2642 2699 2720 2716 2407 2331 2582 2519 2484 2335 2548 3758 3378 3158 2975 2670 2692 2585 2977 2752 2665 2944 3015 3107 3282 3368 3044 2572 2672 2691 3416 2833 2902 2789 2393 2866 2560 2120 1808 2092 1918 2274 2518 2885 2136 1402 1012 891 769 725 806 2958 2862 2664 2334 2436 2760 2749 3200 3340 2988 2710 2655 2045 1890 2076 1918 2206 2133 1992 1937
1210 1503 1722 1596 1406 1476 1943 2089 2064 2955 2856 2532 2228 2297 2723 2754 2775 2789 2633 2330 2493 2371 2228 2364 2647 3958 3174 3145 2433 2864 2346 1732 3042 3622 2662 3092 2850 3569 3873 3457 3085 2635 2890 2073 2586 2694 2768 2667 2592 2558 2483 2047 1815 1837 2518 2121 1897 2054 1663 1046 806 809 799 913 672 905 2493 2966 2430 3082 3095 2560 3075 3042 3088 2365 2405 2207 1846 1963 2078 1824 2055 2063 1994
1291 976 1532 1521 1404 1447 2022 2163 2505 2643 2775 2617 2472 2366 2715 2428 2538 2801 2654 2502 2529 2429 2072 2234 2713 3394 3212 2696 2790 1917 2002 1864 3265 2605 2878 2975 2763 2754 2963 2345 2954 2867 3028 2391 1802 1625 2751 2921 2603 2541 2846 3002 1828 1997 1799 1808 1718 1448 1007 719 936 516 1279 600 673 862 864 2810 2570 3047 3037 3242 2926 2852 3059 2795 2790 2432 2144 1852 2142 1950 2007 2031 2112
888 977 1326 1284 1530 1728 2220 2047 2263 2809 2211 1908 1996 2544 2372 2135 1886 1833 2180 2924 2477 2618 2624 2163 2258 3194 3015 2954 3182 2175 1935 1506 2302 2503 3111 2459 2710 2747 3013 2712 2187 2330 2051 1957 2508 2220 2416 2858 2538 2532 2798 2996 2929 1896 2120 1710 998 941 540 565 498 691 639 296 440 524 676 2547 2696 2670 3463 3176 2969 2781 3097 2870 2959 2736 2665 2434 2418 2270 2319 2014 2070
900 1073 1049 1340 1492 1430 1966 2011 1951 2347 2208 1764 1989 2162 2486 2277 2600 2465 2588 2722 2519 2501 2336 1982 2188 2696 2833 3059 2816 2675 2099 1717 2717 3409 3227 3174 2858 2920 2903 2717 2794 3059 1904 1636 3035 3055 3069 2676 2130 2414 1764 1937 2046 2280 2312 1272 698 515 566 328 450 267 367 478 196 227 513 1161 2696 2638 3184 3353 3002 3170 2701 3016 2875 3030 2731 2560 2713 2395 2187 2406 1999
1308 1102 1044 1045 1283 1326 1561 1866 2172 2625 2190 1644 2142 2162 2393 2294 2487 2574 2538 2560 2542 2760 2529 2274 1756 1694 2628 3591 3476 3473 2749 2161 3366 4106 3317 3189 3156 3288 3587 3094 3067 2702 2720 2820 3762 2986 2425 1919 3278 2901 2492 2597 2592 2430 1885 1138 771 743 472 323 265 377 395 167 140 230 47 1132 2910 2944 2650 3228 3266 3278 3259 2852 3002 3136 2944 2901 3091 2810 2615 2306 2416
1099 1189 1075 1511 1047 1019 1149 1434 1647 2445 2507 1763 2259 2092 2244 2295 2483 2649 2594 2671 3078 2378 2253 2331 2442 2690 3492 3542 4110 3905 3331 3314 3567 3125 2948 3349 3057 3252 3472 3245 2736 3006 2528 2577 2982 3004 3102 2248 3041 3315 2775 2694 1998 2203 1364 1100 652 449 257 308 26 267 138 37 83 36 21 161 1349 2976 2838 2550 3122 3239 3236 3267 3121 3236 3210 3114 3108 3003 2674 2351 2115
1240 1252 1578 1318 1042 1014 1091 1369 1696 2527 2490 1718 1810 1930 2157 2101 2264 2475 2590 3090 2940 2672 2152 2244 2697 2588 4196 4045 4452 4060 4479 3452 3993 3687 3472 3561 3018 3304 3234 3086 2845 2970 3247 2567 3090 3417 3411 2772 2420 3226 3704 3127 2042 1257 1033 550 562 726 507 258 172 207 35 88 232 32 12 8 692 1599 2773 2718 2155 3311 3119 3450 3323 3234 3374 3306 2988 2949 2786 2554 2058
1506 1522 1153 1109 1225 931 1090 1210 1696 2122 2478 1710 2139 1857 2131 2065 2317 2434 2641 3031 2822 2738 2625 2825 2967 3526 3746 3952 3562 4227 4342 3973 4211 3953 3658 3485 3140 3034 3143 2596 2758 2864 2992 3546 3443 3809 2821 2014 1606 1436 1702 2141 1382 1097 1196 740 840 789 590 457 580 168 158 132 29 81 147 225 254 419 1109 2890 2568 2090 3006 3387 3555 3602 3426 3558 3550 3235 2645 2222 2044
1489 1427 1762 1737 1976 1318 1125 1047 1952 2166 2198 1895 2246 2178 2325 1992 2282 2296 2254 3000 2670 2511 1860 2308 2730 3262 3391 4531 3929 4266 4372 4326 4126 4845 3804 3519 2981 3071 2688 2564 2907 2992 3078 3454 3467 3118 2783 2466 2013 1315 2161 1767 1285 1184 967 909 628 899 652 768 702 152 7 71 2 303 311 594 398 545 873 1081 2377 2688 2212 2667 3373 3595 3787 3599 3646 3342 2908 2443 2159
1941 2068 1969 1997 1773 1692 1720 911 1549 2169 2174 2124 2237 2365 2389 2603 2237 2134 2223 2918 2635 2180 2444 1884 2052 2797 2875 4041 3954 4312 4147 3958 4094 4127 4227 3661 2982 2927 2956 3197 2927 3256 3119 3037 3405 2928 2403 2021 1984 1485 1595 1316 1487 1109 968 1338 562 550 622 665 1086 247 209 10 187 77 222 585 496 605 909 1214 1441 1780 2101 2284 2394 3033 3660 3800 3760 3159 2999 2614 2236
1709 2009 2000 2449 2358 1997 1903 1065 977 1860 2181 1994 2474 2650 3114 2911 2539 2090 1986 2620 2230 2447 2735 2479 2142 2233 2627 2810 4233 3419 3573 3475 3836 4310 4266 3296 3345 3115 2764 2657 3098 2978 3039 3337 3052 2712 2731 1420 2378 1911 1324 1566 1073 470 420 566 366 284 191 572 289 189 672 169 251 9 698 407 656 303 679 1034 1784 1531 2015 1687 2827 3001 2809 3584 2995 2734 2234 2567 2411
1563 1589 2110 2496 2220 2097 1849 1604 1592 1213 2724 2784 2758 2890 2871 2949 2512 2346 2587 2310 1900 1949 2089 2686 2624 2263 2560 3284 4260 4104 3533 3636 3500 3670 4079 3464 3048 2562 2433 3008 2728 2845 2864 2542 2752 2052 1666 1489 1933 1909 1391 1047 1126 353 143 142 206 79 52 0 956 261 268 761 139 1157 700 438 148 332 710 768 960 1332 1348 1712 2191 2944 2419 2793 3054 3140 2623 2563 2484
1306 1824 2310 2634 2487 2444 2366 2358 2656 2005 2315 2933 3168 3126 3103 3232 2517 2733 2422 2825 2982 2606 2551 2693 2610 2390 2022 3611 4388 4007 4036 3974 3406 3589 4041 3714 3875 2936 2919 2803 3321 3357 2317 2154 1986 1695 1609 1737 1371 1439 1398 910 747 535 252 196 7 4 61 270 1193 577 782 698 1498 318 443 127 57 3 82 812 639 1018 1328 1502 2024 2365 2348 2474 2563 2103 2458 2740 2501
1661 2054 2706 2801 2743 2726 2631 2681 2941 2417 2903 3086 3182 2818 2596 2696 2491 2402 2323 2597 2782 3009 3019 2716 2184 2543 2368 3890 4389 4164 4039 3404 3043 3430 3773 4252 3843 3878 3292 2937 2715 2060 1866 1636 1630 1580 1748 1216 1008 664 423 522 602 827 448 348 680 707 501 157 376 618 431 362 270 244 233 119 0 174 10 242 236 540 404 1336 1574 2124 2488 2475 2353 1872 2159 2078 2317
2043 2403 2793 2847 2874 2730 2584 2824 2792 2796 2938 2808 2793 2795 2698 2595 2621 2192 2155 2268 2838 2969 3006 2783 2496 2010 2720 4227 4620 4391 3953 3265 3189 3260 3374 3735 3650 3980 3802 2884 2131 1923 1786 2202 1968 1308 1217 981 1291 867 742 620 624 662 287 146 647 617 1199 706 1345 793 484 648 499 247 20 45 0 40 4 0 9 4 586 524 926 1863 2188 2387 2224 1930 2226 2454 2211
2197 2453 2580 2778 3000 2720 2703 2909 2784 2921 2642 2768 2950 2948 2906 2442 2434 2342 1911 1951 2880 3215 3189 3166 2893 3058 4260 4498 4476 4175 4073 3405 2957 2751 2892 3059 3788 3733 3301 3013 2098 1966 1609 1719 1420 964 960 890 1103 1030 684 541 879 150 610 240 380 479 1031 1081 2340 419 992 869 197 104 32 6 1 4 0 0 0 0 4 1085 659 887 959 1731 2239 2170 2341 2246 1955
2004 2172 2647 3012 3250 3135 3114 3087 3146 3016 2860 2717 3040 2995 2936 2787 2472 2501 2412 2207 2424 2948 2972 3243 3731 3386 3528 3612 3804 3860 3804 3592 3422 3297 3251 3399 3289 2874 2920 2474 1918 1754 1829 1997 1253 1349 1357 412 978 1196 936 1124 675 691 1256 308 363 650 643 416 460 535 1047 750 671 2 1 0 4 0 3 0 0 0 15 3 245 271 302 425 738 1157 1470 1990 2115
2328 2276 2542 2905 3236 3238 3349 3336 3380 3232 2967 2762 2983 2980 3061 3168 3153 3002 2801 2548 3812 3292 3600 2980 3056 3058 2744 3024 3016 3033 3488 3685 3224 2426 3280 3281 2703 2675 2517 2212 2315 2204 2052 1829 1966 1319 1284 1359 720 1014 1281 661 660 723 412 798 200 454 605 689 546 346 564 761 486 454 8 5 0 0 2 0 0 0 12 0 0 29 28 332 318 377 535 909 2102
2175 2279 2392 2510 2758 3171 3281 3257 3249 3364 3268 2823 3008 3245 3420 3381 3312 3220 3931 3904 3314 3378 3598 3070 2796 3005 2847 3194 3504 3527 3807 3856 3052 3156 2592 2877 2686 3062 2663 2518 2505 1994 1679 1493 1585 627 769 808 999 1152 964 1007 580 754 874 374 806 469 400 457 428 176 554 397 39 485 287 14 2 2 8 0 0 0 107 0 0 13 6 50 139 23 153 238 344
2016 2140 2025 2248 2675 3134 3252 3189 3126 3440 3371 3116 3002 3369 3513 3439 3449 3405 4172 4067 3714 3379 3238 2995 3016 3021 2790 3212 3447 2919 3188 3703 3612 2760 2812 3142 3224 2888 2574 2038 1983 1958 1352 1996 1585 1935 620 562 1187 1047 1074 781 942 830 780 443 220 484 532 326 256 251 822 729 455 905 913 28 159 16 8 0 0 177 424 67 7 0 12 0 421 9 0 0 0
1850 2027 2050 2219 2779 3187 3254 3348 3235 3401 3504 3438 3202 3332 3586 3625 3503 3320 3877 3647 3709 3312 3560 3178 3222 3401 3194 2989 2685 2860 2996 3546 3044 2866 3171 3073 2751 2664 2274 2122 1965 2036 1544 839 1031 302 826 1137 834 994 1551 1351 817 991 596 90 346 417 132 129 169 384 268 478 599 352 380 1091 816 14 1 2 3 2 0 17 0 1 0 0 0 0 0 0 10
1670 1704 2026 2312 2881 3294 3495 3459 3358 3378 3483 3704 3496 3482 3520 3734 3737 3780 4041 3742 3162 3316 3638 3636 3658 3593 3494 2952 2262 2163 2371 2802 2538 3060 2886 2565 2554 2553 2282 2075 1840 1455 1513 1206 937 1259 1123 1263 878 1190 1172 1490 1308 724 672 272 640 868 1021 339 286 444 468 383 162 128 318 109 641 332 31 2 6 8 8 1 1 0 526 0 0 0 289 66 0
1690 1996 2268 2369 2965 3448 3708 3722 3546 3590 3633 3904 3848 3719 3680 3922 4191 4396 3982 3412 3382 3340 3269 3344 3344 2916 2706 2945 3139 2682 3241 3167 2864 2827 2626 2540 2652 2482 2266 2211 1452 1092 856 1237 667 444 1015 1225 1240 1356 1207 994 1025 841 264 731 308 726 923 897 679 784 353 319 83 250 70 174 54 171 558 244 23 85 13 6 11 104 266 0 51 0 0 378 0
1855 2168 2206 2490 3054 3500 3863 3936 3776 3768 3861 4080 4024 3941 3867 4285 4467 4207 3900 3856 3779 3487 2917 3113 3222 3219 3030 2986 3078 3394 3122 3224 2949 2877 2892 2611 2472 2356 2105 1956 1282 684 332 790 431 1198 993 697 984 986 1149 1103 1042 795 540 365 1142 484 1038 768 1194 656 1202 167 221 147 86 109 63 50 37 54 1038 113 104 119 56 9 12 183 67 22 0 4 296
1950 2209 2248 2515 2869 3418 3805 3992 3994 3882 3954 4115 4093 4200 4030 4341 4565 4230 3896 3827 3852 3706 3457 3324 3218 3178 3322 3039 3316 3496 3202 3053 2497 2960 2817 2387 2410 2196 1809 1791 991 1107 558 755 682 591 302 386 423 451 638 583 566 563 155 28 847 1081 542 640 714 570 658 534 146 18 121 202 213 43 20 28 10 109 230 125 145 210 51 166 192 37 32 0 0
Wind_Speed
12 8 10 4 2 2 1 5 4 7 6 7 6 6 6 7 6 6 8 12 14 15 14 13 12 12 12 11 10 9 9 10 11 10 9 8 9 10 10 10 11 10 10 9 7 7 8 9 9 9 7 6 6 6 6 5 5 6 5 5 5 4 4 4 4 3 2 1 1 1 2 2 4 4 4 6 7 7 7 6 3 1 3 4 8
7 7 8 6 2 4 3 6 9 11 9 10 9 9 10 10 8 5 4 11 16 15 13 11 11 11 10 10 9 9 10 10 10 10 9 9 9 9 9 10 10 10 10 9 7 7 8 9 9 9 8 7 6 6 6 6 5 7 7 6 5 4 3 4 4 3 3 3 2 2 2 1 3 4 4 5 7 8 9 8 5 0 3 3 5
6 5 6 4 4 5 8 11 13 14 13 14 12 12 13 14 12 10 11 12 15 14 12 10 10 9 9 9 9 9 10 10 10 10 10 10 9 8 9 10 10 9 10 8 7 7 7 9 9 9 8 7 6 5 5 4 5 5 6 6 5 4 4 3 3 2 3 4 2 3 6 0 1 4 4 5 7 9 9 9 8 6 1 4 3
4 5 5 4 6 6 7 10 12 15 16 16 16 15 12 11 13 13 10 12 13 13 11 10 9 8 8 8 8 9 10 10 10 11 10 10 9 8 9 10 9 8 8 7 6 6 7 8 9 9 8 8 6 5 4 3 5 6 5 4 4 4 3 3 4 4 4 2 1 0 6 8 1 3 4 5 7 9 10 11 10 9 7 2 4
4 4 4 5 8 9 11 12 14 16 17 16 14 13 11 12 13 13 11 12 12 11 11 10 10 8 8 7 7 8 9 10 11 11 11 10 10 9 9 9 8 7 6 5 4 5 6 7 8 8 8 8 8 6 5 4 4 5 6 5 4 4 3 3 3 2 2 4 3 3 5 9 4 3 5 7 8 9 11 11 11 10 9 8 5
6 6 4 5 7 8 11 12 16 16 16 16 14 13 14 13 13 14 12 12 11 12 11 10 10 8 8 7 7 8 9 11 11 11 11 10 10 9 9 9 8 7 6 5 5 5 5 6 7 8 8 9 8 6 6 5 4 4 6 7 6 4 3 2 3 5 5 5 3 4 4 2 7 3 6 8 10 9 10 11 10 10 10 8 6
11 8 8 5 4 6 6 9 12 14 13 15 14 14 14 12 13 12 11 11 11 12 11 11 9 8 7 7 7 8 10 12 12 12 12 11 10 9 9 8 7 6 6 5 4 4 5 6 7 7 7 9 9 6 6 6 5 5 6 8 7 5 3 1 1 3 3 3 4 4 3 4 8 3 8 9 9 10 12 11 11 11 10 9 9
9 7 7 7 5 8 5 5 8 9 12 15 16 13 12 11 11 11 10 10 11 12 12 10 9 8 8 7 8 9 11 12 12 12 12 11 10 10 11 10 8 6 5 5 4 4 3 5 5 7 7 8 7 6 5 5 6 6 6 7 7 6 4 3 3 2 0 2 4 3 2 2 1 4 7 10 10 10 11 11 11 11 10 10 11
8 8 7 5 5 6 5 5 7 11 13 13 14 14 13 12 11 10 10 10 11 12 11 10 9 9 9 9 9 10 11 12 12 12 12 11 9 10 11 10 8 6 6 5 4 3 3 3 4 5 6 6 6 5 5 5 6 6 6 6 6 6 5 3 4 5 4 3 4 5 5 4 4 6 7 10 11 11 11 10 9 10 10 11 11
7 6 6 5 6 6 7 8 9 11 12 13 13 13 13 13 12 11 9 9 11 12 12 12 10 9 9 10 10 11 12 12 12 11 11 10 10 10 10 10 8 6 6 5 4 3 3 2 3 3 4 4 4 4 5 5 6 6 5 5 5 7 7 6 8 10 6 4 3 6 8 6 4 7 8 10 12 10 8 9 7 8 9 9 11
7 6 5 6 6 8 9 10 10 11 11 12 12 13 13 14 12 10 10 11 12 13 13 12 11 10 10 10 10 11 11 12 12 11 10 10 10 9 9 9 8 7 7 6 5 5 4 3 2 3 3 3 3 4 5 5 6 6 4 3 4 6 8 9 8 6 4 3 3 7 6 6 5 5 11 11 11 9 7 9 11 10 11 13 13
6 4 5 4 8 8 10 10 10 10 10 11 12 12 12 12 12 11 11 11 12 12 12 12 11 10 10 9 10 10 10 10 10 10 9 10 9 9 9 9 9 9 8 6 6 6 6 4 3 2 1 1 2 3 4 5 6 6 4 1 2 5 7 9 6 4 4 4 5 5 2 5 6 9 12 10 10 11 10 10 11 12 13 14 13
5 5 4 4 4 8 8 9 9 9 9 10 10 10 11 11 11 11 11 11 11 10 11 11 10 10 10 10 9 10 9 9 9 8 8 9 9 9 8 8 9 9 9 7 7 7 7 6 3 2 1 1 1 1 3 4 5 6 5 1 1 4 4 8 5 4 4 3 5 6 2 2 6 12 12 11 10 12 13 12 11 12 13 14 15
6 5 5 4 2 7 8 7 7 8 8 8 8 9 9 11 11 11 11 11 12 12 12 12 11 10 10 10 9 9 10 10 9 8 7 7 7 7 8 7 8 8 7 6 4 6 7 5 3 3 1 2 2 1 1 1 3 5 4 1 3 1 4 8 8 6 4 4 4 4 2 2 7 13 13 13 12 12 14 14 13 11 13 14 15
8 9 7 5 4 3 8 6 5 6 7 8 8 8 9 9 9 10 11 12 13 14 14 13 13 11 10 10 9 8 10 11 9 7 6 5 6 6 6 6 6 5 5 4 2 4 5 4 3 3 2 3 3 2 1 1 4 4 5 3 3 2 6 8 6 6 4 2 1 3 3 1 11 13 14 15 15 13 14 15 14 13 12 13 14
11 10 8 6 5 4 2 5 5 6 7 7 7 7 7 8 8 10 12 12 13 14 13 13 12 11 10 9 8 9 10 12 9 7 6 6 6 6 7 6 7 7 5 4 1 3 5 4 3 4 2 2 3 4 3 3 5 5 7 5 3 4 2 12 6 4 5 2 1 3 3 5 11 13 14 16 16 14 13 14 14 14 13 12 13
10 10 9 8 7 5 3 2 3 7 6 6 6 6 7 8 9 11 12 12 12 12 13 13 12 11 10 9 9 9 11 11 11 8 7 6 7 7 7 7 7 7 6 4 4 5 6 5 4 3 2 2 3 4 3 5 5 4 7 8 4 2 2 11 8 4 5 3 4 6 7 8 7 13 14 15 15 15 14 13 13 13 13 12 12
11 10 9 8 7 6 5 3 3 1 2 4 6 7 8 9 9 10 11 12 12 13 13 14 13 12 11 11 10 11 13 13 13 11 8 7 7 8 7 7 8 7 7 6 6 7 7 6 5 5 4 5 5 5 4 5 6 6 7 8 7 5 1 5 6 6 4 6 5 8 8 8 10 11 14 13 13 14 14 13 13 12 12 12 11
9 10 9 9 7 7 6 3 4 4 4 4 4 5 9 9 10 11 12 13 14 14 15 14 15 14 13 13 14 14 14 15 14 13 12 10 10 9 7 6 5 4 6 9 8 7 8 7 6 7 6 5 5 6 6 7 8 9 9 10 10 11 10 7 3 4 8 5 7 7 7 10 12 12 12 12 12 13 13 14 13 12 13 12 11
7 9 8 6 6 6 4 5 6 6 6 5 5 5 8 10 11 12 13 13 14 15 16 16 16 15 15 16 16 15 15 15 16 15 15 13 12 9 10 8 7 6 7 8 9 9 10 9 8 8 9 9 8 8 8 9 9 10 12 13 14 17 16 7 8 4 2 0 3 6 9 10 10 11 11 11 11 11 12 13 14 12 12 12 11
6 8 5 4 6 5 6 5 8 8 8 6 5 6 7 11 10 12 13 13 15 16 16 17 16 16 16 16 16 15 14 13 15 17 16 15 14 14 13 11 11 11 11 11 12 11 11 10 11 12 12 13 13 13 13 13 12 12 12 14 16 15 16 18 14 11 8 5 4 5 11 11 11 11 11 10 11 11 10 12 13 13 12 12 12
6 4 4 5 4 3 6 6 6 8 7 6 6 6 7 10 10 10 11 13 15 16 16 16 17 16 18 15 15 14 11 13 12 13 15 15 14 15 14 14 13 13 13 13 14 15 14 14 14 15 14 14 15 13 13 16 18 18 15 8 6 4 13 12 13 13 13 10 8 8 12 12 12 11 10 10 10 12 10 11 11 12 13 13 12
6 3 2 4 2 3 4 5 6 7 8 8 7 7 9 9 10 10 10 13 15 15 15 16 16 15 16 14 15 13 12 10 12 15 14 15 16 16 15 15 15 15 14 15 15 15 17 16 16 15 13 15 14 13 12 11 8 14 13 11 12 14 11 12 9 12 11 11 9 12 13 13 12 12 11 9 11 12 12 12 11 11 12 13 13
5 3 3 2 3 4 4 4 6 6 7 8 8 8 9 9 9 10 10 12 13 14 14 14 15 15 15 15 14 12 11 11 15 16 16 17 16 16 16 17 17 18 18 15 16 16 17 18 17 16 14 13 13 12 10 10 14 11 10 12 15 18 17 21 21 18 16 12 11 15 14 13 14 12 11 11 10 11 12 13 12 11 11 12 12
1 1 1 3 4 5 5 5 7 7 9 7 9 9 9 10 10 10 11 13 13 13 14 14 14 14 15 14 14 11 11 13 15 15 15 16 13 11 13 15 16 15 15 13 12 13 14 14 13 14 12 11 11 11 12 10 11 12 14 17 14 10 12 15 20 17 15 14 16 20 17 15 14 13 12 12 11 11 12 12 13 13 12 11 11
1 2 2 3 5 6 8 8 8 8 8 7 9 9 10 10 10 11 11 12 13 13 13 14 13 13 14 14 11 10 11 15 16 14 14 13 12 10 13 14 13 12 11 13 12 11 13 14 13 12 12 13 12 11 15 12 10 14 16 16 14 13 13 15 16 20 18 17 17 23 20 18 17 15 14 14 13 12 12 12 13 14 14 13 11
2 3 3 6 5 7 8 8 8 7 8 8 9 8 10 10 10 10 11 12 12 13 12 12 12 12 13 12 10 9 11 14 14 11 12 13 12 11 13 12 11 11 10 13 12 13 15 15 13 13 14 14 13 14 14 10 12 14 15 16 12 14 15 13 13 13 18 17 19 25 22 20 20 18 16 16 15 13 12 12 13 14 15 15 13
5 2 4 5 6 8 6 8 5 8 7 8 8 9 10 11 11 11 11 10 11 11 11 11 12 12 13 13 10 9 6 15 11 11 10 9 10 12 13 12 10 10 10 12 13 12 15 14 14 13 12 11 11 11 9 12 14 14 12 10 8 11 12 11 13 14 14 17 16 21 23 23 23 21 19 17 16 15 14 14 13 14 15 15 13
7 3 5 5 7 6 6 7 5 6 6 8 8 8 10 11 10 12 10 10 9 10 10 9 11 12 13 13 12 13 11 13 11 10 11 11 11 10 9 10 12 12 11 14 13 13 13 13 14 12 11 12 12 9 9 11 11 12 9 8 9 12 9 12 11 13 15 18 16 19 23 23 21 22 20 19 19 17 14 13 13 13 14 13 10
8 4 6 5 5 6 6 7 6 7 6 9 8 8 8 10 10 9 9 10 10 11 11 11 12 14 12 13 13 12 12 11 6 6 7 8 9 8 10 11 10 12 12 10 12 12 11 11 11 13 11 10 8 8 10 8 10 9 11 11 12 10 11 9 10 14 13 15 17 17 24 22 22 21 20 20 21 20 19 16 14 12 11 10 6
7 6 5 6 5 5 7 7 6 6 7 9 8 8 7 9 9 9 9 10 11 9 12 13 15 13 10 11 11 10 9 8 7 7 8 10 9 7 7 10 10 8 8 9 8 10 9 9 11 9 8 8 7 10 10 12 10 12 9 13 12 11 10 10 14 14 nan 15 18 17 18 24 22 21 20 20 19 21 21 19 17 15 12 11 8
6 8 6 6 5 7 8 8 8 7 8 10 8 8 7 8 8 8 9 10 10 10 11 11 11 8 5 8 6 7 8 7 6 6 8 7 6 6 6 6 7 6 7 7 8 8 10 10 10 6 7 9 12 13 10 11 13 11 11 13 nan 13 11 nan nan nan nan 14 19 19 16 17 23 22 22 21 20 20 20 21 20 18 16 15 13
6 7 6 5 5 9 6 8 8 7 8 11 9 8 7 7 6 7 8 8 8 9 9 8 8 6 4 3 3 5 7 7 6 9 9 6 6 6 6 7 6 6 5 8 10 9 8 8 8 11 10 11 13 11 12 11 10 10 10 11 12 12 nan nan 12 nan nan nan 11 15 19 16 16 21 22 22 22 21 20 20 19 19 19 16 15
4 6 6 6 5 8 7 8 9 9 9 11 7 8 7 6 6 6 7 7 6 8 8 6 5 3 2 5 4 5 7 7 7 8 8 7 8 8 7 7 7 7 8 9 9 9 8 7 8 8 12 13 12 12 12 13 14 13 13 11 12 14 13 13 nan nan 14 12 10 9 12 16 13 12 13 19 21 22 22 22 22 22 22 16 18
3 3 6 5 7 6 7 8 9 10 11 10 8 8 7 6 5 5 5 5 5 6 6 5 4 2 3 4 6 6 7 6 6 6 8 8 9 9 9 8 7 8 9 10 9 8 10 11 11 13 13 13 12 11 12 13 15 16 14 11 11 14 nan nan nan 12 14 15 13 10 10 12 15 14 11 12 16 20 20 21 22 24 28 27 22
2 2 4 3 7 4 7 8 10 9 10 9 7 6 8 6 3 3 3 4 5 5 4 4 5 4 6 6 5 6 5 2 4 5 7 8 8 9 9 9 9 10 10 11 10 11 13 14 13 15 16 14 14 12 11 11 13 15 15 14 13 13 11 nan 10 nan 15 13 12 15 13 11 10 10 14 13 13 15 19 19 19 22 25 27 21
2 2 2 2 4 4 5 7 12 10 9 10 7 6 6 7 4 3 4 3 4 3 3 4 3 4 5 6 8 7 7 6 5 5 6 6 9 11 11 11 11 11 10 12 13 13 14 12 15 15 15 16 14 13 11 10 10 12 14 12 14 12 9 14 11 nan 14 17 14 15 16 14 12 8 6 11 13 12 14 12 15 15 18 22 24
1 4 3 3 3 4 4 6 7 11 8 8 7 6 6 6 5 3 2 2 4 3 3 2 3 3 3 5 10 8 9 9 7 5 5 6 8 12 12 15 15 14 13 12 11 12 13 13 16 16 15 15 14 13 12 10 9 nan nan nan 13 11 8 11 11 11 10 14 14 13 15 16 16 14 12 13 12 12 13 14 15 14 16 19 21
2 4 5 5 4 3 4 5 4 9 9 8 8 7 7 7 5 4 3 2 1 1 1 1 3 4 5 7 9 9 10 10 10 7 7 8 7 11 16 16 16 15 14 12 11 13 13 16 16 16 16 15 14 14 14 12 nan nan nan 12 14 13 10 10 11 11 12 11 nan nan nan 15 17 18 18 15 14 13 14 14 13 12 11 14 17
3 5 6 7 6 5 5 6 5 7 8 8 8 8 7 8 7 5 4 4 2 1 1 1 2 3 5 10 9 9 10 11 11 10 9 9 11 13 16 19 19 19 19 16 15 16 18 17 15 15 15 16 16 16 15 14 13 13 11 14 14 13 12 12 11 11 14 12 nan 11 nan 15 15 16 18 18 16 16 15 14 14 13 11 12 12
3 5 6 8 8 7 7 8 6 7 9 9 8 9 9 8 7 7 6 5 4 2 3 2 3 3 5 10 10 10 11 12 13 13 12 11 12 15 19 21 22 23 20 18 17 18 20 17 19 18 16 17 16 17 17 14 15 13 13 13 17 15 14 12 11 10 nan nan nan nan nan nan nan nan 17 16 17 19 16 15 15 14 12 12 13
5 7 8 9 8 9 8 8 8 7 9 11 9 8 8 7 7 6 5 5 5 4 3 3 3 6 11 11 10 11 13 14 15 16 14 15 16 19 20 23 25 25 23 20 20 21 20 18 19 15 19 16 15 16 18 16 16 15 13 16 17 14 14 15 15 12 nan nan nan nan nan nan nan nan nan 17 18 17 16 16 15 16 14 14 13
9 9 8 8 10 8 7 8 9 9 7 10 10 8 8 7 7 6 5 4 5 4 3 6 6 9 11 13 12 12 14 14 17 19 18 18 22 21 23 26 27 27 25 23 22 23 20 21 19 20 16 17 16 16 19 17 15 13 17 15 15 17 13 11 9 nan nan nan nan nan nan nan nan nan nan nan 18 19 17 15 14 13 14 16 14
8 8 10 11 9 9 9 9 11 11 9 9 11 10 9 8 7 6 6 3 7 7 8 7 6 7 11 14 14 15 17 18 21 20 18 19 23 25 27 27 26 26 25 25 23 22 23 23 21 20 21 17 16 15 17 20 16 17 15 16 15 17 18 13 14 13 nan nan nan nan nan nan nan nan nan nan nan nan nan 17 16 14 13 13 17
10 10 11 11 10 13 12 12 12 13 11 10 10 10 9 8 8 6 11 11 10 11 9 9 8 9 11 15 17 18 19 20 23 24 23 19 25 26 27 27 26 26 25 25 22 21 25 24 25 25 22 19 17 16 18 21 20 20 19 16 16 18 18 15 nan 14 13 nan nan nan nan nan nan nan 18 nan nan nan nan nan 17 nan 15 14 14
9 9 10 11 11 12 13 12 11 12 12 12 11 11 10 10 9 8 11 11 11 11 11 10 11 12 13 17 18 19 21 21 21 26 21 24 25 26 26 27 27 25 25 22 23 22 24 23 28 25 24 24 20 17 18 21 21 20 20 21 19 20 19 16 17 16 15 nan 15 nan nan nan nan 23 20 nan nan nan nan nan 19 nan nan nan nan
10 11 11 11 12 12 12 13 12 12 12 13 13 12 11 10 10 9 11 12 12 12 12 12 13 14 15 20 20 22 20 19 19 23 25 25 25 25 26 26 27 28 25 25 23 23 25 27 29 24 27 27 24 21 20 nan 23 20 20 18 19 19 22 19 20 18 18 17 16 nan nan nan nan nan nan nan nan nan nan nan nan nan nan nan nan
13 13 13 13 14 14 14 14 12 12 13 14 14 13 12 12 11 11 13 13 13 14 15 14 15 16 18 21 24 23 22 21 21 22 24 24 25 25 24 24 25 27 27 26 24 25 28 26 25 28 28 27 24 24 24 23 21 22 21 22 20 21 19 19 22 23 20 19 17 16 nan nan nan nan nan nan nan nan 25 nan nan nan 17 nan nan
14 14 14 13 15 16 16 15 14 14 13 15 15 14 13 13 13 13 13 13 12 14 16 16 18 18 20 23 28 27 25 22 21 24 23 25 25 24 23 22 23 23 24 25 24 27 27 28 26 26 27 26 25 26 27 25 23 26 24 23 22 21 20 19 nan 21 nan 22 nan 20 21 21 nan nan nan nan nan 29 30 nan nan nan nan 20 nan
13 15 15 15 16 18 18 17 15 14 14 15 16 16 14 15 15 15 13 14 15 16 17 19 20 22 22 25 25 24 24 23 20 23 23 24 23 23 21 20 22 22 23 23 22 26 26 24 26 26 25 26 26 26 25 27 27 27 28 25 24 21 21 24 25 24 nan 24 nan nan nan nan 23 22 24 22 nan nan nan 26 nan nan nan nan 23
13 16 17 17 18 20 20 19 17 15 15 15 16 17 16 16 17 16 15 16 17 17 19 20 22 23 23 24 23 23 22 22 21 22 22 22 21 21 21 21 19 20 19 19 18 24 26 25 24 23 25 26 26 25 24 nan 26 29 28 28 25 25 22 26 26 nan 26 24 25 nan nan nan nan 21 23 25 26 26 nan 24 24 nan nan nan nan
Wind_Direction
111 130 128 133 136 185 254 308 311 295 299 297 272 298 324 318 282 238 271 299 295 285 275 264 264 267 272 280 288 299 299 293 294 298 298 291 288 294 303 302 297 298 299 296 301 301 294 291 286 286 291 300 316 327 332 339 341 333 329 334 340 352 3 349 333 313 331 329 201 286 288 339 315 309 312 304 299 306 312 305 287 227 197 228 251
90 107 118 113 45 306 354 344 334 326 332 306 292 297 311 305 300 295 316 319 300 285 276 271 273 276 283 292 302 312 306 301 300 299 298 296 298 306 307 300 300 306 300 300 311 310 300 291 290 292 294 300 306 315 319 328 330 334 333 329 333 343 2 359 325 314 297 288 304 129 265 273 314 309 305 304 298 296 299 296 292 161 123 279 261
82 93 105 82 52 348 336 350 332 327 316 300 292 299 311 322 327 334 347 320 295 282 280 279 276 282 292 304 315 315 308 301 298 299 298 299 309 311 309 306 311 315 307 310 320 311 301 294 291 293 294 291 290 299 305 311 305 301 324 327 331 336 345 5 346 304 274 282 261 200 157 121 303 303 297 288 290 302 308 304 310 299 295 282 263
51 93 92 55 41 21 342 336 326 313 307 303 303 318 331 332 323 326 328 304 294 287 289 290 293 299 305 311 317 311 302 299 298 296 295 303 311 313 311 309 317 314 309 314 315 303 292 287 285 286 285 281 275 270 276 279 283 293 291 295 313 332 328 1 13 332 331 11 68 186 101 100 57 308 307 293 299 299 302 302 305 314 311 260 270
6 54 70 48 50 18 342 336 320 307 304 308 317 333 341 331 323 319 318 300 296 293 294 296 300 307 308 314 314 306 298 297 296 294 301 309 312 316 310 309 310 307 305 303 295 284 274 272 273 276 276 269 263 261 264 267 262 274 278 267 260 283 309 350 5 339 352 60 71 33 90 97 79 310 306 298 299 301 298 304 310 314 320 318 305
340 345 18 24 24 13 337 331 319 314 318 318 323 327 332 331 322 313 304 301 299 297 299 297 298 302 311 320 312 303 297 295 295 301 307 311 314 315 312 309 308 298 295 297 287 278 266 265 265 265 264 260 251 251 263 261 253 261 265 262 259 255 264 336 8 353 19 22 24 56 1 84 99 331 308 299 295 302 305 303 312 314 314 314 308
320 335 338 347 42 48 358 334 320 326 320 312 315 319 320 318 301 296 295 298 297 295 294 292 296 307 318 322 315 304 298 297 302 311 313 316 324 319 310 302 297 293 290 288 283 274 270 266 263 257 253 252 241 236 252 259 255 246 252 258 259 257 250 186 64 359 44 64 68 37 323 17 60 320 308 300 294 302 303 309 311 314 314 313 305
351 355 343 348 34 55 14 341 328 320 308 305 308 312 307 300 298 295 294 294 294 292 290 293 305 322 333 330 321 311 302 304 313 317 319 328 330 316 305 298 294 291 283 276 273 261 262 263 265 265 254 248 237 222 228 247 248 239 241 254 257 251 244 228 238 305 61 136 126 101 60 53 27 325 312 300 297 298 300 307 310 310 314 310 301
15 6 9 27 46 22 6 337 315 304 300 304 308 311 311 307 303 296 294 295 293 292 296 306 324 337 343 338 327 315 309 312 318 320 325 333 321 306 298 297 295 291 287 281 276 264 255 261 259 264 257 240 224 202 197 215 235 236 234 246 259 241 232 238 256 254 235 182 162 124 82 46 20 318 317 308 296 294 294 298 302 305 306 300 298
20 14 17 49 44 359 344 327 316 306 307 308 310 312 311 305 301 297 298 305 304 304 311 323 335 346 345 340 329 319 318 319 322 322 327 321 306 298 297 295 300 305 303 305 304 290 294 286 264 267 267 244 222 198 200 200 223 231 234 235 247 243 218 213 254 247 229 203 163 113 81 36 32 322 332 324 309 301 303 303 305 302 296 291 295
17 16 20 20 357 351 333 324 317 313 311 312 312 309 307 302 297 310 322 321 316 317 323 331 342 351 347 340 330 325 326 325 324 326 322 310 303 300 300 304 309 308 302 304 306 308 317 309 248 237 227 232 216 191 198 212 228 233 219 225 241 246 227 215 237 271 269 247 142 97 51 35 12 331 335 336 328 323 309 298 291 289 293 290 288
16 7 20 24 349 349 332 321 314 310 309 308 306 301 298 302 314 329 327 324 322 324 334 341 348 350 350 342 338 333 333 331 328 328 317 307 307 302 300 302 304 298 290 292 288 292 287 283 263 233 216 221 199 183 190 216 243 243 243 233 255 276 253 219 232 261 250 198 144 117 4 10 348 338 333 341 341 330 319 309 300 293 294 295 295
0 5 5 13 8 340 327 312 303 300 303 301 298 296 300 309 321 329 328 327 323 333 342 345 351 352 351 352 346 341 340 345 346 339 327 318 313 307 305 303 299 291 289 280 272 267 263 263 253 231 192 280 260 166 168 213 241 254 250 244 357 295 264 232 244 251 234 197 156 143 150 79 334 341 345 345 344 337 332 321 315 309 304 300 301
358 358 7 4 22 336 320 302 293 293 297 303 303 303 311 317 323 327 334 336 335 344 351 352 357 358 359 1 358 349 356 7 7 356 346 334 327 318 311 309 306 297 293 287 259 248 241 241 209 206 196 279 263 261 177 232 252 264 270 291 78 0 264 238 244 231 224 196 177 163 198 68 335 344 347 349 347 345 340 332 329 322 312 308 306
349 349 352 344 351 353 325 309 298 298 301 307 309 312 319 323 326 337 342 346 349 353 359 1 5 7 10 10 6 2 12 23 25 14 8 356 343 333 329 330 329 325 328 320 287 224 213 205 181 150 142 341 308 282 304 264 302 305 302 322 64 95 274 286 240 249 237 218 169 194 202 229 320 336 342 349 350 351 345 337 334 331 325 318 313
339 338 333 344 347 350 351 326 314 300 300 304 306 321 327 331 341 347 352 355 358 4 7 10 13 19 19 17 17 16 19 29 36 32 20 7 355 347 348 347 350 359 353 1 1 164 163 168 151 135 104 338 338 338 333 302 311 318 309 318 16 118 235 287 287 268 279 242 284 273 251 295 321 331 337 342 345 347 345 337 336 335 330 325 319
326 329 338 339 339 358 1 10 319 306 306 314 324 339 346 351 354 360 3 7 10 11 16 21 26 29 32 30 28 24 22 30 41 38 27 16 6 358 354 351 359 7 10 15 45 113 131 141 134 109 84 25 7 12 333 320 333 327 310 309 320 113 173 282 297 323 309 308 261 263 267 278 319 333 334 334 335 340 339 337 333 333 329 327 321
325 331 330 335 354 359 4 354 344 10 355 350 352 358 1 360 4 10 16 19 20 21 25 31 36 38 41 43 39 33 31 35 40 39 33 20 13 11 5 4 15 19 30 39 69 98 114 127 110 91 57 40 22 31 16 342 336 335 318 319 314 293 182 258 285 307 298 289 277 266 267 295 322 332 326 325 328 331 332 332 331 329 326 325 321
322 322 328 342 356 359 352 358 31 47 30 44 43 18 0 4 9 18 26 24 26 28 33 39 43 47 47 47 45 40 41 40 41 42 41 36 24 24 32 25 44 55 38 52 69 87 99 92 94 81 73 50 41 34 31 9 1 353 346 340 330 307 259 201 233 252 242 226 270 273 281 303 326 324 317 313 317 322 326 328 327 326 323 320 322
312 322 333 344 352 355 358 27 42 35 39 31 20 16 10 6 14 19 24 27 28 33 38 44 48 53 53 50 48 49 48 49 47 50 50 52 44 65 37 53 59 67 70 74 72 78 74 78 71 68 68 67 61 51 50 39 29 23 12 0 351 331 313 352 29 341 319 220 309 291 296 318 329 325 312 310 309 317 323 324 322 322 319 316 316
322 329 337 350 344 349 11 40 38 28 29 18 15 15 16 10 16 19 22 26 32 36 42 47 54 57 58 54 53 58 59 61 54 62 52 62 49 51 61 60 70 72 78 83 78 77 74 71 66 64 65 65 70 68 65 66 61 57 41 17 4 354 337 348 6 11 21 31 16 333 330 335 329 327 317 315 312 311 315 316 315 316 313 312 310
322 331 333 339 329 17 31 41 44 29 33 36 31 28 23 20 27 28 35 37 37 42 51 60 60 69 58 61 66 67 65 70 72 74 67 64 60 61 62 71 74 77 74 77 76 77 75 71 65 63 65 68 67 64 60 60 64 69 68 65 24 26 331 354 359 4 19 2 23 349 348 335 326 327 330 326 317 309 307 308 309 310 310 311 310
325 328 339 325 12 52 51 43 34 38 23 29 32 30 22 42 35 37 45 40 45 47 58 63 67 68 70 65 69 67 59 69 67 62 65 62 63 50 67 74 74 72 67 67 70 70 73 74 71 73 71 75 72 61 58 62 65 87 90 59 1 22 355 347 25 13 18 7 14 343 350 330 327 331 338 343 324 310 304 304 304 306 307 308 311
324 340 348 7 26 69 55 57 38 41 40 45 40 35 37 49 50 50 54 56 55 60 64 68 68 68 65 69 71 65 58 65 64 58 60 65 61 57 66 75 78 73 69 66 64 66 70 76 78 75 68 64 70 73 65 36 46 38 54 56 42 25 13 355 16 12 11 8 351 355 349 330 326 337 347 348 330 318 310 304 303 297 296 298 302
313 334 29 58 57 53 51 53 49 44 44 54 53 44 43 54 56 57 60 61 63 65 67 68 69 66 68 71 70 65 66 68 70 63 64 69 71 63 67 65 70 73 65 73 72 72 65 67 67 62 69 69 66 67 65 52 42 58 54 48 50 43 34 18 11 15 13 3 351 4 352 338 333 339 350 345 340 328 316 312 305 299 290 286 291
331 87 73 81 64 58 50 49 46 52 58 63 58 52 44 58 61 65 66 65 66 68 69 68 67 63 68 68 68 69 66 70 64 62 60 71 69 69 66 64 64 71 76 81 72 73 71 68 62 61 58 57 51 44 63 51 39 45 53 55 45 41 38 33 20 12 14 6 1 3 355 348 345 345 351 348 346 341 328 319 315 306 293 281 277
89 91 101 105 74 50 53 50 52 66 66 65 65 56 56 60 64 67 70 69 65 69 70 68 67 61 66 65 59 65 68 72 65 58 58 60 58 56 57 59 54 54 54 69 69 61 59 63 55 56 48 50 37 39 35 30 44 45 46 50 34 37 27 20 15 13 4 8 2 359 354 353 352 356 357 350 351 354 348 343 334 318 305 288 272
97 68 86 81 76 39 52 53 68 67 70 64 56 54 59 54 59 63 64 69 63 67 69 67 64 62 59 62 50 58 56 77 58 49 52 57 49 50 50 54 47 53 55 58 54 59 57 57 57 44 49 50 45 39 28 30 32 37 41 39 36 43 27 16 3 1 9 354 357 360 355 355 356 358 2 355 358 357 2 2 353 339 329 309 280
97 68 89 71 55 53 44 56 52 58 58 51 49 55 50 61 54 60 57 61 62 63 64 64 64 60 58 58 48 45 35 51 49 41 38 39 38 38 50 47 41 38 39 47 49 50 46 49 46 44 42 43 39 21 15 28 34 29 13 17 36 42 5 21 10 0 7 349 354 358 353 356 358 360 2 1 358 1 5 6 360 356 350 337 299
98 92 88 93 73 49 40 49 42 55 53 49 57 49 60 64 75 67 66 53 61 58 62 56 65 55 47 51 52 52 51 23 22 47 35 29 40 36 37 51 41 27 31 48 46 45 48 45 50 39 37 40 36 13 30 27 30 28 15 3 25 28 13 11 20 12 4 348 347 353 355 356 356 358 2 5 6 5 5 6 5 2 355 342 327
108 98 105 105 90 60 49 51 43 49 55 53 59 48 46 66 63 69 64 61 63 54 56 59 42 47 41 41 47 49 51 50 360 23 33 26 37 32 43 47 49 32 41 36 24 39 31 24 41 38 22 34 11 30 19 20 12 30 9 8 15 7 3 3 24 7 nan 341 348 351 357 355 354 356 357 5 11 8 8 6 1 358 354 341 342
103 103 119 127 70 56 46 49 45 44 60 48 47 54 51 56 61 69 66 65 57 60 57 57 65 53 10 33 63 51 48 57 350 25 35 25 23 26 35 54 44 38 42 44 31 29 25 19 29 28 27 0 12 22 15 12 7 12 14 4 nan 1 347 nan nan nan nan 350 345 348 347 357 356 354 354 358 5 9 11 7 2 355 351 353 340
118 99 124 91 48 62 49 43 49 45 53 52 35 39 39 49 56 59 64 60 57 61 61 56 57 47 341 357 22 61 69 43 20 18 38 13 11 6 21 32 41 24 22 46 37 15 2 10 3 2 23 7 22 5 4 355 357 357 8 352 360 342 nan nan 345 nan nan nan 329 333 347 351 355 355 354 353 357 1 5 6 1 350 347 355 350
121 118 103 77 77 74 60 49 43 32 46 50 35 35 24 31 42 43 54 52 53 55 56 60 50 26 335 347 8 32 65 43 28 29 31 3 3 11 10 16 11 7 17 28 29 353 350 353 351 345 23 10 5 3 354 351 344 357 358 348 360 334 355 353 nan nan 350 319 330 348 328 339 344 346 351 354 352 356 359 358 356 350 333 2 6
133 83 94 96 89 66 63 48 33 25 31 46 32 26 19 19 20 32 34 35 47 53 54 49 39 350 355 1 348 18 42 38 33 23 31 12 8 6 8 4 358 350 6 10 11 347 341 351 357 355 360 4 354 359 2 350 341 347 346 348 355 329 nan nan nan 344 310 325 325 332 319 319 335 341 344 344 351 351 353 355 354 350 343 0 13
81 115 99 84 84 61 66 30 17 9 18 32 32 16 11 17 8 17 33 19 41 44 50 45 36 356 356 351 359 2 16 76 33 31 31 19 1 348 347 349 354 345 360 358 352 345 341 351 354 357 351 350 348 347 356 344 340 335 335 348 348 323 340 nan 334 nan 317 315 326 331 320 319 311 331 340 345 336 342 350 350 350 353 350 347 357
52 349 53 67 78 59 43 33 7 7 4 13 18 8 358 360 10 5 22 17 32 38 39 43 26 13 331 352 356 353 351 5 9 15 29 23 353 336 338 340 339 348 349 336 339 337 344 347 352 351 350 347 341 344 336 331 338 325 331 348 324 321 334 322 317 nan 321 328 341 325 324 322 313 298 343 320 315 321 323 321 334 337 350 352 343
3 342 338 336 25 45 4 44 354 1 351 358 3 356 353 346 2 25 1 18 26 34 26 18 1 341 10 335 343 346 340 344 333 343 9 17 358 339 331 330 342 339 336 319 323 328 338 347 339 344 341 337 335 325 324 319 320 nan nan nan 314 310 324 315 316 331 320 321 326 325 321 312 317 316 292 298 311 315 318 313 316 320 325 338 340
323 330 314 312 341 13 342 13 352 351 345 343 346 351 346 344 355 12 16 0 32 16 32 338 349 343 355 318 320 333 336 330 325 334 348 357 353 335 327 339 331 323 304 306 324 319 328 333 334 334 332 330 327 327 324 326 nan nan nan 314 303 322 315 319 321 319 335 326 nan nan nan 322 319 311 313 307 313 310 312 318 320 319 322 324 338
296 294 300 313 330 346 333 335 341 334 318 327 333 346 351 347 357 356 5 357 359 25 351 351 326 320 324 310 319 325 328 323 322 326 334 346 338 323 321 322 321 319 318 326 324 329 324 316 318 316 320 327 328 327 319 320 323 309 310 320 318 315 321 324 328 342 323 329 nan 305 nan 313 307 305 305 314 312 309 313 313 312 321 334 323 325
325 317 316 322 332 341 332 329 328 324 308 320 331 344 348 346 347 358 358 350 349 358 11 342 321 340 311 303 318 319 321 320 320 323 328 327 325 314 310 314 312 315 320 324 328 314 305 311 315 320 321 320 320 320 319 313 306 315 314 308 316 323 326 329 335 333 nan nan nan nan nan nan nan nan 303 301 307 311 310 311 314 319 326 319 320
340 336 344 336 333 344 337 323 318 319 316 318 321 336 339 340 333 337 343 343 332 347 350 314 318 273 271 293 299 312 317 316 313 310 317 323 316 309 307 310 312 314 321 320 319 307 308 313 305 310 313 310 307 306 298 303 304 313 317 316 310 320 323 330 331 347 nan nan nan nan nan nan nan nan nan 309 305 300 306 309 313 319 317 324 324
347 346 335 330 328 333 321 316 307 314 312 309 314 326 330 333 321 316 334 320 324 324 304 281 274 297 293 296 306 309 308 311 312 313 320 323 309 301 316 315 314 314 312 318 309 308 310 304 309 303 294 302 305 301 302 297 300 297 300 305 310 314 301 296 318 nan nan nan nan nan nan nan nan nan nan nan 299 301 299 297 291 296 309 320 321
335 336 332 332 316 313 313 312 305 310 311 306 308 317 323 319 316 304 318 312 264 278 284 282 290 300 305 306 309 313 321 318 311 313 318 314 297 320 317 313 312 313 314 307 309 306 304 301 302 300 293 288 287 296 299 303 296 290 289 294 307 307 310 308 310 308 nan nan nan nan nan nan nan nan nan nan nan nan nan 299 296 293 294 294 314
339 334 329 328 315 323 317 316 306 307 303 304 301 299 302 305 299 301 266 264 267 270 278 290 305 314 314 311 316 320 315 315 315 314 305 325 322 324 316 314 313 310 306 306 305 306 304 308 298 287 293 288 290 294 300 296 298 295 293 292 296 294 290 295 nan 303 297 nan nan nan nan nan nan nan 308 nan nan nan nan nan 302 nan 296 297 293
329 324 329 330 318 315 318 314 304 300 303 305 300 289 293 295 294 298 280 274 281 291 303 309 311 314 324 309 309 318 314 313 317 310 330 324 323 317 316 311 308 310 308 308 307 303 297 298 295 299 298 298 289 285 284 289 290 296 296 297 299 297 300 297 297 298 301 nan 305 nan nan nan nan 310 315 nan nan nan nan nan 302 nan nan nan nan
321 313 320 324 322 313 318 315 307 300 300 300 302 286 286 286 295 290 281 284 287 290 290 300 303 305 307 305 308 309 311 316 326 320 320 320 314 314 313 315 313 310 312 307 310 312 305 296 300 302 289 290 296 290 284 nan 283 282 292 292 291 293 289 293 288 291 291 295 296 nan nan nan nan nan nan nan nan nan nan nan nan nan nan nan nan
317 320 323 321 319 311 311 311 302 303 299 296 300 292 287 287 286 283 279 283 290 289 296 296 294 299 305 310 306 310 318 330 320 315 319 315 314 317 317 316 317 315 315 318 316 309 306 306 301 294 295 299 293 292 286 283 286 280 274 279 279 280 286 288 288 291 294 294 292 292 nan nan nan nan nan nan nan nan 300 nan nan nan 293 nan nan
320 319 317 313 308 305 304 302 301 298 298 301 299 298 291 287 284 281 282 281 285 285 289 293 295 301 304 302 308 318 322 319 318 317 319 316 318 319 321 323 320 319 320 320 318 311 311 310 308 303 303 300 299 290 288 285 282 283 278 274 274 276 284 292 nan 290 nan 285 nan 290 295 302 nan nan nan nan nan 297 301 nan nan nan nan 299 nan
314 308 309 306 302 297 299 301 300 291 290 297 297 299 296 284 284 286 294 286 284 285 288 294 297 300 301 304 307 309 313 315 319 317 318 319 322 321 324 332 326 326 326 322 322 309 304 303 307 310 311 306 296 294 296 296 290 283 284 284 279 277 275 276 284 287 nan 286 nan nan nan nan 290 289 294 298 nan nan nan 297 nan nan nan nan 294
304 307 309 307 302 299 298 300 298 286 286 291 294 297 293 286 284 291 294 291 291 289 290 292 297 300 302 305 308 309 313 316 318 316 320 322 323 326 334 337 331 322 324 321 324 319 317 315 314 311 304 301 302 301 295 nan 287 287 286 287 285 281 281 278 279 nan 279 288 285 nan nan nan nan 289 292 286 287 285 nan 289 291 nan nan nan nan